OPS 4682 DEB, 38436

Orbit data source: Space-Track

OPS 4682 DEB, 38436 is space debris in LEO originally from a launch on Sat, 03 Apr 1965 UTC launched from the Air Force Western Test Range (AFWTR). Debris objects in space refer to the collection of defunct objects orbiting the Earth. Examples of debris include non-operational satellites, rocket bodies, and fragments generated from explosions, collisions, or faulty payload assembly.

Loading next visibility...
Identifier
38436, 1965-027ER
Orbit
LEO
Country
Flag of USUS
Related business
Manufacturer
Unknown
Mission
Spacecraft
Bus & Motor
Unknown
Mass
Unknown
Launch date (UTC)
1965-04-03 (61 years ago)
Launch vehicle
Unknown
Launch site
Air Force Western Test Range (AFWTR)
Object type
Payload
Rocket body
Debris
Shape & HBR
Unknown shape, 0.1 m
Radar Cross Section
Medium (>0.1 m² and <1 m²)

Expand to show TLE details & history
Last TLE update: 3 days ago

TLE from 3 days ago
0 OPS 4682 DEB
1 38436U 65027ER  26261.53790258 -.00000246  00000-0 -84306-3 0  9998
2 38436  90.2480   4.9666 0023740  51.2050 309.1187 12.99996437627552
Epoch: 2026-09-18T12:54Z
TLE epoch observation values (Epoch: 2026-09-18T12:54:34.782Z)
Latitude
-0.0001°
Longitude
173.86232°
Altitude
1,253.564 km
Speed
7.234 km/s
True Right ascension
00h 19m 51s
True Declination
0° 00' 00"
Sunlit
Object was in full shadow at epoch
Visualization orbit readout
Latitude
Unknown
Longitude
Unknown
Altitude
Unknown
Speed
Unknown
Apparent Right ascension
Unknown
Apparent Declination
Unknown
Sunlit
N/A
Visualization observer readout
Local Sidereal Time
21:45:39
Azimuth
Unknown
Elevation
Unknown
Doppler factor
Unknown
Orbital elements
Apogee altitude
1,277.359 km
Perigee altitude
1,241.096 km
Semi-major axis
7,637.365 km
Eccentricity
0.00237
Inclination
90.248°
RAAN
4.9666°
Arg. of periapsis
51.205°
True anomaly
308.90724°
Mean anomaly
309.1187°
Eccentric anomaly
309.01301°
Mean motion
3.25183 °/min
Orbital period
110.71 mins
BSTAR
-0.00084306
Loading maneuver chart data...
Computing Atmospheric mass density...
Loading historical data...
Loading historical data...
Loading historical data...
Loading historical data...
Loading historical data...
Loading historical data...
Loading historical data...

Documentation

Showing up to 5 results
|